SCP
0 0 0 0 0 0 0 0 0 0 0 0 0 0 0 0 0 0 0 0 0 0 0 0 0 0 0 0 0 0 0 0 0 0 0 0 0 0 0 0 0 0 0
0 0 0 0 0 0 0 0 0 0 0 0 0 0 0 0 0 0 0 0 0 0 1 0 0 0 0 0 0 0 0 0 0 0 0 0 0 0 0 0 -0 -0 -0
0 0 0 0 0 0 0 0 0 0 0 0 0 0 0 0 0 0 0 0 0 0 0 0 0 0 0 0 0 0 0 0 0 0 0 0 0 0 0 -0 0 -0 0
0 0 0 0 0 0 0 0 0 0 0 0 0 0 0 0 0 0 0 0 0 0 0 0 0 0 0 0 0 0 0 0 0 0 0 0 0 0 0 0 0 -0 0
0 0 0 0 0 0 0 1 0 0 0 0 0 0 0 0 0 0 0 0 0 0 0 0 0 0 0 0 0 0 0 0 0 0 0 0 0 0 0 0 0 0 0
0 0 0 0 0 0 0 0 0 0 0 0 0 0 0 0 0 0 0 0 0 0 0 0 0 0 0 0 0 0 0 0 0 0 0 0 0 0 0 0 0 0 0
0 0 0 0 0 0 0 0 0 0 0 0 0 0 0 0 0 0 0 0 0 0 0 0 0 0 0 0 0 0 0 0 0 0 0 0 0 0 0 0 0 0 0
0 0 0 0 0 0 0 0 0 0 0 0 0 0 0 0 0 0 0 0 0 0 0 0 0 0 0 0 0 0 0 0 0 0 0 0 0 0 0 0 0 0 0
0 0 1 1 0 0 0 0 0 0 0 0 0 0 0 0 0 0 0 0 0 0 0 0 0 0 0 0 0 0 0 0 0 0 0 0 0 0 0 0 0 0 0
1 1 1 0 0 0 0 0 0 0 0 0 0 0 0 0 0 0 0 0 0 0 0 0 0 0 0 0 0 0 0 0 0 0 0 0 0 0 -0 0 0 0 0
1 0 0 0 0 0 0 0 0 0 0 0 0 0 0 0 0 0 0 0 0 0 0 0 0 0 0 0 0 0 0 0 0 0 0 0 0 -0 0 -0 -0 -0 0
0 0 0 0 0 0 0 0 0 0 0 0 0 0 0 0 0 0 0 0 0 0 0 0 0 0 0 0 0 0 0 0 0 0 0 0 0 -0 -0 -0 -0 -0 -0
0 0 0 0 0 0 0 0 0 0 0 0 0 0 0 0 0 0 0 0 0 0 0 0 0 0 0 0 0 0 0 0 0 0 0 0 -0 0 0 -0 -0 0 0
0 0 0 0 0 0 0 0 0 0 0 0 0 0 0 0 0 0 0 0 0 0 0 0 0 0 0 0 0 0 -0 0 0 0 0 0 0 0 0 0 -0 0 0
0 0 0 0 0 0 0 0 0 0 0 0 0 0 0 0 0 0 0 0 0 0 0 0 0 0 0 0 0 0 0 -0 0 0 0 0 0 0 0 0 0 0 0
0 0 0 0 0 0 0 0 0 0 0 0 0 0 0 0 0 0 0 0 0 0 0 0 0 0 0 0 0 0 0 -0 0 0 0 0 0 0 0 0 0 -0 -0
0 0 0 0 0 0 0 0 0 0 0 0 0 0 0 0 0 0 0 0 0 0 0 0 0 0 0 0 0 0 0 0 0 0 0 0 0 0 0 0 0 -0 0
0 0 0 0 0 0 0 0 0 0 0 0 0 0 0 0 0 0 0 0 0 0 0 0 0 0 0 0 0 0 0 0 0 0 0 0 0 0 0 0 0 0 0
0 0 0 0 0 0 0 0 0 0 0 0 0 0 0 0 0 0 0 0 0 0 0 0 0 0 0 0 0 0 0 0 0 0 0 0 0 0 0 0 0 0 0
0 0 0 0 0 0 0 0 0 0 0 0 0 0 0 0 0 0 0 0 0 0 0 0 0 0 0 0 0 0 0 0 0 0 0 0 0 0 0 0 0 0 0
0 0 0 0 0 0 0 0 0 0 0 0 0 0 0 0 0 0 0 0 0 0 0 0 0 0 0 0 0 0 0 0 0 0 0 0 0 0 0 0 0 0 0
0 0 0 0 0 0 0 0 0 0 0 0 0 0 0 0 0 0 0 0 0 0 0 0 0 0 0 0 0 0 0 0 0 0 0 0 0 0 0 0 0 0 0
0 0 0 0 0 0 0 0 0 0 0 0 0 0 0 0 0 0 0 0 0 0 0 0 0 0 0 0 0 0 0 0 0 0 0 0 0 0 0 0 0 0 0
0 0 0 0 0 0 0 0 0 0 0 0 0 0 0 0 0 0 0 0 0 0 0 0 0 0 0 0 0 0 0 0 -0 -0 0 0 0 0 0 0 0 0 0
0 0 0 0 0 0 0 0 0 0 0 0 0 0 0 0 0 0 0 0 0 0 0 0 0 0 0 0 0 0 0 0 0 -0 -0 0 0 0 0 0 0 0 0
0 0 0 0 0 0 0 0 0 0 0 0 0 0 0 0 0 0 0 0 0 0 0 0 0 0 0 0 0 0 0 0 0 0 -0 -0 0 0 0 0 0 0 0
Wind_Speed_500mb
57 55 56 51 46 42 39 37 36 34 31 33 33 33 35 38 32 33 39 44 47 51 47 49 53 47 27 33 33 42 34 26 22 16 14 15 20 24 10 16 13 18 13
48 48 51 54 51 49 46 38 31 27 26 25 25 26 27 29 31 36 44 46 47 49 51 57 48 41 26 27 29 34 29 20 17 15 14 25 26 23 21 20 16 20 14
43 46 49 48 50 46 41 36 30 26 22 24 26 27 31 36 38 40 45 51 53 52 54 49 43 36 23 18 25 26 23 19 17 12 9 27 29 29 25 22 22 17 12
56 46 46 49 49 45 42 39 35 27 25 26 31 35 36 40 43 49 55 58 58 55 48 42 37 31 22 19 23 16 15 19 17 13 8 30 37 32 26 23 23 21 16
76 67 51 44 46 43 45 43 36 24 25 29 34 37 39 46 50 52 54 52 46 41 41 39 33 23 20 20 22 13 14 18 19 14 12 31 40 34 27 24 23 20 19
57 54 47 44 42 44 47 42 31 31 32 36 39 42 42 43 41 36 35 39 34 35 35 28 21 20 21 22 15 8 9 9 15 17 12 27 36 32 27 26 24 21 20
46 48 46 44 42 45 43 40 34 32 32 37 38 36 33 33 33 29 28 25 28 29 27 24 20 16 17 17 13 12 11 13 6 1 5 13 27 34 29 21 18 14 13
44 44 40 38 41 45 43 36 29 28 33 31 25 23 26 24 22 19 17 22 27 22 19 20 22 16 9 7 7 12 13 15 15 14 14 13 9 21 24 9 5 9 11
39 38 39 39 41 41 37 30 26 26 26 20 16 15 14 15 17 20 18 19 11 18 20 23 16 5 1 6 8 10 10 10 18 23 22 20 15 15 18 18 18 12 11
38 39 39 38 37 36 33 30 28 25 19 15 10 8 9 12 14 13 12 13 16 26 26 24 11 8 9 7 9 7 5 6 12 22 29 27 22 17 21 17 15 11 10
43 41 40 39 37 36 33 29 26 22 15 10 6 3 10 13 14 13 12 16 17 21 25 20 17 8 6 9 13 16 12 6 11 14 21 26 23 21 23 23 18 19 15
46 42 39 38 37 35 33 31 26 18 11 9 5 3 4 5 8 13 17 20 19 17 15 13 11 10 7 7 5 1 12 5 9 13 14 20 21 21 20 19 18 18 22
49 44 39 35 32 30 27 25 21 16 12 9 6 6 9 13 18 18 16 19 21 17 13 1 3 13 9 5 6 5 9 4 6 11 13 15 17 21 18 14 16 17 17
50 46 44 42 40 34 28 22 18 16 12 7 3 3 7 11 13 12 15 12 11 15 11 4 11 14 12 9 8 13 14 8 8 12 19 17 16 15 13 14 14 13 12
46 46 44 41 38 35 29 23 15 12 8 6 7 10 12 14 16 15 11 9 10 12 10 3 8 19 21 22 21 22 20 24 16 18 16 14 13 10 15 18 16 13 8
39 42 43 40 35 29 23 20 16 13 10 9 13 16 20 22 21 15 11 12 14 14 7 5 3 5 17 29 32 29 23 22 28 26 29 22 16 11 17 18 19 17 8
35 42 38 40 29 22 15 8 2 2 4 9 15 20 22 21 21 17 12 6 11 13 9 6 5 3 4 15 28 37 31 28 35 32 34 28 23 17 18 18 21 22 14
32 30 39 35 27 17 16 12 8 7 8 12 18 21 23 26 26 21 19 8 7 9 12 8 6 9 9 6 10 25 34 41 43 36 38 38 30 21 22 18 24 26 21
48 31 25 20 20 21 26 18 14 14 14 15 19 24 26 28 25 22 19 12 8 9 14 14 12 15 13 12 14 16 24 41 45 42 41 44 38 31 28 22 24 27 26
35 43 40 31 28 31 26 20 16 16 15 16 20 22 23 21 17 16 14 12 11 11 17 20 14 17 20 21 18 19 22 22 35 39 46 46 43 42 37 33 28 34 35
42 44 39 32 31 26 21 21 12 13 14 17 18 20 25 23 21 20 15 13 13 10 18 19 21 21 19 25 29 24 24 24 28 35 37 42 44 45 52 42 40 37 38
41 36 28 24 23 22 17 11 9 11 12 12 15 17 17 16 16 17 19 19 18 19 17 16 23 29 26 27 30 34 28 28 31 35 39 36 39 48 56 52 47 50 48
30 24 22 21 18 14 10 7 7 7 9 7 7 9 12 11 11 13 16 17 23 23 23 21 22 24 31 34 35 35 39 36 36 34 41 42 40 43 50 52 57 55 57
24 21 18 16 10 6 6 8 5 4 5 7 8 12 13 14 15 17 15 18 20 24 24 23 20 21 20 23 34 39 41 45 50 45 41 41 45 46 44 55 62 59 62
28 27 26 24 21 18 13 12 12 10 12 11 13 14 16 16 17 17 18 19 21 22 21 23 22 21 20 19 22 32 42 48 53 58 56 48 44 47 48 55 63 60 57
39 38 34 32 28 25 21 17 18 16 16 18 18 18 18 17 18 20 20 20 21 23 25 29 31 30 30 31 32 36 44 49 52 62 67 60 52 50 52 53 59 64 62
Wind_Direction_500mb
238 241 246 247 251 255 261 266 269 275 284 283 280 281 285 292 297 301 302 304 305 304 306 307 315 310 277 281 304 294 263 260 261 262 246 198 196 190 173 182 171 185 182
235 245 250 253 255 258 260 267 267 273 278 286 290 295 296 298 301 301 305 307 305 306 311 311 314 313 300 272 312 304 261 250 243 260 215 188 195 185 176 177 174 168 159
234 232 245 255 258 257 258 259 255 262 272 285 296 297 298 299 301 300 300 306 306 306 310 311 315 316 301 285 313 297 258 235 233 260 242 191 186 187 180 176 168 166 166
239 247 259 257 256 253 248 249 244 259 283 299 298 296 295 294 296 302 302 303 302 304 310 308 308 310 287 290 299 271 228 227 224 235 234 187 182 186 184 184 183 183 180
243 251 257 255 252 243 235 240 240 262 279 292 294 291 291 294 300 299 303 306 308 310 310 306 304 299 280 285 302 258 211 213 219 220 191 183 181 188 179 185 191 196 196
237 242 244 250 242 229 227 231 242 259 271 286 292 294 299 302 299 306 308 312 313 317 317 315 305 290 283 283 271 211 189 216 221 210 184 192 194 184 169 181 190 202 213
233 233 238 238 229 220 223 229 244 251 271 285 291 296 303 310 309 306 308 313 322 325 327 328 314 294 281 276 230 199 189 176 220 296 147 182 200 188 168 173 187 202 224
221 224 225 222 217 217 222 231 238 251 270 277 288 301 309 315 319 316 316 323 326 331 334 329 314 295 291 236 229 204 192 194 199 181 131 117 159 193 193 191 183 224 229
210 212 215 215 214 214 218 224 230 248 255 269 286 308 316 317 318 323 332 334 13 0 354 344 346 322 220 194 235 186 196 192 204 183 168 166 182 195 198 200 207 225 253
218 214 208 206 207 212 215 218 226 230 240 251 278 323 356 330 339 338 338 337 337 344 358 11 0 315 199 232 170 146 140 151 182 190 184 182 190 210 203 200 225 232 262
207 203 202 203 206 210 211 208 211 217 221 243 260 47 39 12 356 344 324 321 332 343 346 4 0 347 265 195 153 147 130 147 166 175 190 194 196 209 212 212 228 248 258
196 197 199 199 200 200 201 196 195 199 214 236 243 254 275 291 304 316 324 331 334 338 340 358 29 80 124 171 172 212 107 147 169 163 174 187 197 201 207 211 223 246 265
188 188 192 189 187 185 188 184 179 178 187 204 237 250 270 283 278 279 291 310 313 324 338 16 82 129 139 147 171 149 92 117 154 148 168 175 188 182 189 219 258 258 258
184 183 183 183 176 170 168 162 163 157 161 160 144 5 344 330 322 314 273 272 304 326 324 262 214 204 200 195 193 184 145 123 132 143 149 164 183 193 214 232 261 239 276
181 177 177 176 174 170 165 154 151 141 122 86 54 27 6 353 349 345 338 321 333 339 336 291 222 222 226 216 207 212 218 166 198 192 193 182 185 225 260 252 242 222 280
187 180 183 182 177 172 170 161 150 132 103 53 25 8 356 349 346 340 345 337 338 333 345 31 324 257 236 234 229 228 233 220 215 220 209 212 224 249 256 253 236 231 254
190 179 188 187 174 175 175 166 205 127 24 7 344 338 343 338 337 329 320 357 359 355 327 314 292 326 300 249 239 237 231 237 228 231 233 219 219 237 239 242 236 237 248
170 179 188 179 170 189 214 220 239 281 309 322 322 327 334 336 333 324 314 304 277 307 295 273 275 287 277 256 244 243 236 233 243 239 233 242 238 237 226 235 230 233 242
155 174 196 190 191 216 223 226 245 265 281 305 315 323 325 332 327 318 305 295 261 262 267 271 269 265 285 265 255 237 230 234 243 246 240 240 244 248 236 232 232 228 240
191 212 211 222 227 215 221 228 243 263 281 301 311 320 325 335 325 314 307 290 269 252 286 278 269 254 263 275 280 272 261 230 239 250 251 239 238 241 245 234 237 228 230
190 190 192 193 201 208 226 239 248 276 306 308 309 314 315 326 333 337 340 335 319 292 247 264 279 277 262 260 274 285 281 256 243 244 262 264 253 248 246 233 234 236 231
180 185 184 195 209 212 211 231 264 285 291 302 307 316 318 318 325 341 346 351 346 334 318 299 266 265 262 263 266 272 274 278 263 248 247 261 263 251 246 241 233 233 226
175 186 199 198 199 206 212 219 251 275 288 299 324 351 353 341 322 334 340 351 336 328 326 323 308 294 266 264 268 269 272 271 275 262 248 247 248 261 249 240 235 232 231
178 179 178 167 154 166 142 127 138 153 84 30 16 8 6 4 359 353 351 353 341 327 326 327 325 313 304 286 265 268 269 267 276 274 265 252 243 240 253 237 233 234 231
150 144 134 125 124 120 114 101 85 63 51 29 7 4 9 10 5 348 344 343 338 335 343 342 335 330 325 313 288 272 266 269 269 272 271 265 248 237 234 236 232 233 234
133 127 117 107 96 87 78 72 66 53 40 30 25 20 17 14 353 341 336 337 327 325 327 326 324 319 315 303 294 287 282 278 265 260 265 263 258 243 235 238 236 234 235
Wind_Speed_850mb
57 55 56 51 46 42 39 37 36 34 31 33 33 33 35 38 32 33 39 44 47 51 47 49 53 47 27 33 33 42 34 26 22 16 14 15 20 24 10 16 13 18 13
48 48 51 54 51 49 46 38 31 27 26 25 25 26 27 29 31 36 44 46 47 49 51 57 48 41 26 27 29 34 29 20 17 15 14 25 26 23 21 20 16 20 14
43 46 49 48 50 46 41 36 30 26 22 24 26 27 31 36 38 40 45 51 53 52 54 49 43 36 23 18 25 26 23 19 17 12 9 27 29 29 25 22 22 17 12
56 46 46 49 49 45 42 39 35 27 25 26 31 35 36 40 43 49 55 58 58 55 48 42 37 31 22 19 23 16 15 19 17 13 8 30 37 32 26 23 23 21 16
76 67 51 44 46 43 45 43 36 24 25 29 34 37 39 46 50 52 54 52 46 41 41 39 33 23 20 20 22 13 14 18 19 14 12 31 40 34 27 24 23 20 19
57 54 47 44 42 44 47 42 31 31 32 36 39 42 42 43 41 36 35 39 34 35 35 28 21 20 21 22 15 8 9 9 15 17 12 27 36 32 27 26 24 21 20
46 48 46 44 42 45 43 40 34 32 32 37 38 36 33 33 33 29 28 25 28 29 27 24 20 16 17 17 13 12 11 13 6 1 5 13 27 34 29 21 18 14 13
44 44 40 38 41 45 43 36 29 28 33 31 25 23 26 24 22 19 17 22 27 22 19 20 22 16 9 7 7 12 13 15 15 14 14 13 9 21 24 9 5 9 11
39 38 39 39 41 41 37 30 26 26 26 20 16 15 14 15 17 20 18 19 11 18 20 23 16 5 1 6 8 10 10 10 18 23 22 20 15 15 18 18 18 12 11
38 39 39 38 37 36 33 30 28 25 19 15 10 8 9 12 14 13 12 13 16 26 26 24 11 8 9 7 9 7 5 6 12 22 29 27 22 17 21 17 15 11 10
43 41 40 39 37 36 33 29 26 22 15 10 6 3 10 13 14 13 12 16 17 21 25 20 17 8 6 9 13 16 12 6 11 14 21 26 23 21 23 23 18 19 15
46 42 39 38 37 35 33 31 26 18 11 9 5 3 4 5 8 13 17 20 19 17 15 13 11 10 7 7 5 1 12 5 9 13 14 20 21 21 20 19 18 18 22
49 44 39 35 32 30 27 25 21 16 12 9 6 6 9 13 18 18 16 19 21 17 13 1 3 13 9 5 6 5 9 4 6 11 13 15 17 21 18 14 16 17 17
50 46 44 42 40 34 28 22 18 16 12 7 3 3 7 11 13 12 15 12 11 15 11 4 11 14 12 9 8 13 14 8 8 12 19 17 16 15 13 14 14 13 12
46 46 44 41 38 35 29 23 15 12 8 6 7 10 12 14 16 15 11 9 10 12 10 3 8 19 21 22 21 22 20 24 16 18 16 14 13 10 15 18 16 13 8
39 42 43 40 35 29 23 20 16 13 10 9 13 16 20 22 21 15 11 12 14 14 7 5 3 5 17 29 32 29 23 22 28 26 29 22 16 11 17 18 19 17 8
35 42 38 40 29 22 15 8 2 2 4 9 15 20 22 21 21 17 12 6 11 13 9 6 5 3 4 15 28 37 31 28 35 32 34 28 23 17 18 18 21 22 14
32 30 39 35 27 17 16 12 8 7 8 12 18 21 23 26 26 21 19 8 7 9 12 8 6 9 9 6 10 25 34 41 43 36 38 38 30 21 22 18 24 26 21
48 31 25 20 20 21 26 18 14 14 14 15 19 24 26 28 25 22 19 12 8 9 14 14 12 15 13 12 14 16 24 41 45 42 41 44 38 31 28 22 24 27 26
35 43 40 31 28 31 26 20 16 16 15 16 20 22 23 21 17 16 14 12 11 11 17 20 14 17 20 21 18 19 22 22 35 39 46 46 43 42 37 33 28 34 35
42 44 39 32 31 26 21 21 12 13 14 17 18 20 25 23 21 20 15 13 13 10 18 19 21 21 19 25 29 24 24 24 28 35 37 42 44 45 52 42 40 37 38
41 36 28 24 23 22 17 11 9 11 12 12 15 17 17 16 16 17 19 19 18 19 17 16 23 29 26 27 30 34 28 28 31 35 39 36 39 48 56 52 47 50 48
30 24 22 21 18 14 10 7 7 7 9 7 7 9 12 11 11 13 16 17 23 23 23 21 22 24 31 34 35 35 39 36 36 34 41 42 40 43 50 52 57 55 57
24 21 18 16 10 6 6 8 5 4 5 7 8 12 13 14 15 17 15 18 20 24 24 23 20 21 20 23 34 39 41 45 50 45 41 41 45 46 44 55 62 59 62
28 27 26 24 21 18 13 12 12 10 12 11 13 14 16 16 17 17 18 19 21 22 21 23 22 21 20 19 22 32 42 48 53 58 56 48 44 47 48 55 63 60 57
39 38 34 32 28 25 21 17 18 16 16 18 18 18 18 17 18 20 20 20 21 23 25 29 31 30 30 31 32 36 44 49 52 62 67 60 52 50 52 53 59 64 62
Wind_Direction_850mb
238 241 246 247 251 255 261 266 269 275 284 283 280 281 285 292 297 301 302 304 305 304 306 307 315 310 277 281 304 294 263 260 261 262 246 198 196 190 173 182 171 185 182
235 245 250 253 255 258 260 267 267 273 278 286 290 295 296 298 301 301 305 307 305 306 311 311 314 313 300 272 312 304 261 250 243 260 215 188 195 185 176 177 174 168 159
234 232 245 255 258 257 258 259 255 262 272 285 296 297 298 299 301 300 300 306 306 306 310 311 315 316 301 285 313 297 258 235 233 260 242 191 186 187 180 176 168 166 166
239 247 259 257 256 253 248 249 244 259 283 299 298 296 295 294 296 302 302 303 302 304 310 308 308 310 287 290 299 271 228 227 224 235 234 187 182 186 184 184 183 183 180
243 251 257 255 252 243 235 240 240 262 279 292 294 291 291 294 300 299 303 306 308 310 310 306 304 299 280 285 302 258 211 213 219 220 191 183 181 188 179 185 191 196 196
237 242 244 250 242 229 227 231 242 259 271 286 292 294 299 302 299 306 308 312 313 317 317 315 305 290 283 283 271 211 189 216 221 210 184 192 194 184 169 181 190 202 213
233 233 238 238 229 220 223 229 244 251 271 285 291 296 303 310 309 306 308 313 322 325 327 328 314 294 281 276 230 199 189 176 220 296 147 182 200 188 168 173 187 202 224
221 224 225 222 217 217 222 231 238 251 270 277 288 301 309 315 319 316 316 323 326 331 334 329 314 295 291 236 229 204 192 194 199 181 131 117 159 193 193 191 183 224 229
210 212 215 215 214 214 218 224 230 248 255 269 286 308 316 317 318 323 332 334 13 0 354 344 346 322 220 194 235 186 196 192 204 183 168 166 182 195 198 200 207 225 253
218 214 208 206 207 212 215 218 226 230 240 251 278 323 356 330 339 338 338 337 337 344 358 11 0 315 199 232 170 146 140 151 182 190 184 182 190 210 203 200 225 232 262
207 203 202 203 206 210 211 208 211 217 221 243 260 47 39 12 356 344 324 321 332 343 346 4 0 347 265 195 153 147 130 147 166 175 190 194 196 209 212 212 228 248 258
196 197 199 199 200 200 201 196 195 199 214 236 243 254 275 291 304 316 324 331 334 338 340 358 29 80 124 171 172 212 107 147 169 163 174 187 197 201 207 211 223 246 265
188 188 192 189 187 185 188 184 179 178 187 204 237 250 270 283 278 279 291 310 313 324 338 16 82 129 139 147 171 149 92 117 154 148 168 175 188 182 189 219 258 258 258
184 183 183 183 176 170 168 162 163 157 161 160 144 5 344 330 322 314 273 272 304 326 324 262 214 204 200 195 193 184 145 123 132 143 149 164 183 193 214 232 261 239 276
181 177 177 176 174 170 165 154 151 141 122 86 54 27 6 353 349 345 338 321 333 339 336 291 222 222 226 216 207 212 218 166 198 192 193 182 185 225 260 252 242 222 280
187 180 183 182 177 172 170 161 150 132 103 53 25 8 356 349 346 340 345 337 338 333 345 31 324 257 236 234 229 228 233 220 215 220 209 212 224 249 256 253 236 231 254
190 179 188 187 174 175 175 166 205 127 24 7 344 338 343 338 337 329 320 357 359 355 327 314 292 326 300 249 239 237 231 237 228 231 233 219 219 237 239 242 236 237 248
170 179 188 179 170 189 214 220 239 281 309 322 322 327 334 336 333 324 314 304 277 307 295 273 275 287 277 256 244 243 236 233 243 239 233 242 238 237 226 235 230 233 242
155 174 196 190 191 216 223 226 245 265 281 305 315 323 325 332 327 318 305 295 261 262 267 271 269 265 285 265 255 237 230 234 243 246 240 240 244 248 236 232 232 228 240
191 212 211 222 227 215 221 228 243 263 281 301 311 320 325 335 325 314 307 290 269 252 286 278 269 254 263 275 280 272 261 230 239 250 251 239 238 241 245 234 237 228 230
190 190 192 193 201 208 226 239 248 276 306 308 309 314 315 326 333 337 340 335 319 292 247 264 279 277 262 260 274 285 281 256 243 244 262 264 253 248 246 233 234 236 231
180 185 184 195 209 212 211 231 264 285 291 302 307 316 318 318 325 341 346 351 346 334 318 299 266 265 262 263 266 272 274 278 263 248 247 261 263 251 246 241 233 233 226
175 186 199 198 199 206 212 219 251 275 288 299 324 351 353 341 322 334 340 351 336 328 326 323 308 294 266 264 268 269 272 271 275 262 248 247 248 261 249 240 235 232 231
178 179 178 167 154 166 142 127 138 153 84 30 16 8 6 4 359 353 351 353 341 327 326 327 325 313 304 286 265 268 269 267 276 274 265 252 243 240 253 237 233 234 231
150 144 134 125 124 120 114 101 85 63 51 29 7 4 9 10 5 348 344 343 338 335 343 342 335 330 325 313 288 272 266 269 269 272 271 265 248 237 234 236 232 233 234
133 127 117 107 96 87 78 72 66 53 40 30 25 20 17 14 353 341 336 337 327 325 327 326 324 319 315 303 294 287 282 278 265 260 265 263 258 243 235 238 236 234 235